Regional Weather Roundup
Issued by NWS

Home | Current Version | Previous Version | Graphics & Text | Print | Product List | Glossary Off
Versions: 1 2 3 4 5 6 7 8 9 10 11 12 13 14 15 16 17 18 19 20 21 22 23 24 25 26 27 28 29 30 31 32 33 34 35 36 37 38 39 40 41 42 43 44 45 46 47 48 49 50

000
ASUS43 KLSX 250510
RWRMO

WEATHER SUMMARY FOR MISSOURI
NATIONAL WEATHER SERVICE SPRINGFIELD MO
1200 AM CDT WED APR 25 2018

NOTE: "FAIR" INDICATES FEW OR NO CLOUDS BELOW 12,000 FEET WITH NO
       SIGNIFICANT WEATHER AND/OR OBSTRUCTIONS TO VISIBILITY.
       CURRENT SKY AND/OR WEATHER CONDITIONS ARE NOT AVAILABLE FOR
       CHILLICOTHE AND FARMINGTON.

MOZ001>031-035>038-043-044-053-054-250600-
...NORTHERN AND WESTERN MISSOURI...

CITY           SKY/WX    TMP DP  RH WIND       PRES   REMARKS
KANSAS CTY INT CLOUDY    58  46  64 N15       30.11F
KANSAS C DTWN  CLOUDY    61  45  55 NW7       30.11F
LEE`S SUMMIT   CLOUDY    60  46  59 N17       30.11F
ST JOSEPH      CLOUDY    57  48  72 N17       30.13F
CHILLICOTHE      N/A     62  41  46 NW5       30.11R
KIRKSVILLE     CLOUDY    59  45  59 N12G22    30.07F

$$
MOZ066>068-077>081-088>096-101>105-250600-
...SOUTHWEST MISSOURI...

CITY           SKY/WX    TMP DP  RH WIND       PRES   REMARKS
SPRINGFIELD    CLEAR     53  39  59 CALM      30.06F
JOPLIN         CLEAR     54  43  66 N8        30.10R
BRANSON        PTCLDY    57  39  51 CALM      30.08F

$$
MOZ032>034-039>042-045>050-055>058-069>072-250600-
...CENTRAL MISSOURI...

CITY           SKY/WX    TMP DP  RH WIND       PRES   REMARKS
COLUMBIA       CLOUDY    62  35  36 NW6       30.04S
JEFFERSON CITY PTCLDY    56  42  59 W5        30.03F
ROLLA          CLOUDY    56  44  64 W3        30.04F
SEDALIA        CLOUDY    64  45  49 NW13G21   30.08R
WARRENSBURG    CLOUDY    61  45  55 NW10      30.09F
OSAGE BEACH    CLOUDY    54  45  71 W5        30.06S

$$
MOZ051-052-059>065-250600-
...EAST CENTRAL MISSOURI...

CITY           SKY/WX    TMP DP  RH WIND       PRES   REMARKS
ST LOUIS INTL  PTCLDY    54  43  66 CALM      30.00S
SPIRIT OF STL  CLEAR     48  46  93 W3        29.99F
ST CHARLES     PTCLDY    52  43  71 NW7       29.98F

$$
MOZ072>076-082>087-097>100-106>115-250600-
...SOUTH CENTRAL AND SOUTHEAST MISSOURI...

CITY           SKY/WX    TMP DP  RH WIND       PRES   REMARKS
CAPE GIRARDEAU FAIR      51  50  96 SW3       30.00F
FARMINGTON     CLEAR     50  49  96 CALM      30.02F
POPLAR BLUFF   FAIR      53  53 100 CALM      30.01F
WEST PLAINS    CLEAR     53  46  77 CALM      30.05F

$$




USA.gov is the U.S. government's official web portal to all federal, state and local government web resources and services.